Temp
72 75 82 83 83 83 84 83 83 83 83 82 83 83 83 83 83 83 83 83 83 84 84 84 84 84 83 83 83 83 83 83 83 83 82 82 82 82 82 82 82 82 81
75 77 82 83 83 83 83 83 83 83 83 83 83 83 83 83 83 83 83 83 83 84 84 84 84 83 83 83 83 83 82 82 83 82 83 83 82 82 82 82 82 82 82
75 77 80 82 83 83 83 83 83 83 83 83 83 83 83 83 83 83 83 83 83 84 84 83 83 83 83 83 83 83 82 81 82 82 82 78 79 82 82 82 82 81 81
75 76 78 82 82 83 83 83 83 83 83 83 83 83 83 83 83 83 83 83 83 83 83 83 83 83 83 82 82 82 82 81 80 81 76 77 78 82 82 82 82 81 81
75 76 79 82 83 83 83 83 83 83 83 83 83 83 83 83 83 83 83 83 83 83 83 83 83 83 83 83 82 82 82 82 81 81 75 75 75 79 83 82 82 82 81
75 77 82 83 83 83 83 82 82 82 83 83 83 83 83 83 83 83 83 83 83 83 83 83 83 83 83 83 83 83 83 83 83 77 76 75 76 77 79 83 82 82 81
74 77 80 83 83 83 83 82 82 82 82 82 83 83 83 83 83 83 83 83 82 82 82 83 83 84 84 84 83 83 83 83 82 78 76 75 75 77 80 83 82 82 82
75 77 79 82 82 83 82 82 82 82 83 83 83 83 83 83 82 82 82 82 82 83 83 83 83 83 84 84 84 83 83 83 84 78 76 75 75 78 80 81 82 82 82
76 76 77 78 80 83 82 82 82 83 83 83 83 83 82 82 82 82 82 82 83 83 83 83 84 84 84 83 84 83 84 84 82 77 76 76 76 78 81 81 82 81 82
75 75 75 76 77 76 77 82 83 82 82 83 82 83 82 82 83 82 82 81 83 83 84 84 84 84 83 83 84 84 84 84 83 78 76 78 78 80 81 81 81 82 81
75 74 74 74 74 74 75 79 82 83 83 83 82 83 80 77 77 78 81 82 84 84 85 85 84 83 83 83 83 83 83 80 82 80 79 77 79 80 82 81 81 82 81
73 72 73 73 72 72 78 75 75 77 77 76 77 77 75 76 75 80 81 82 83 83 84 83 83 82 81 78 81 82 81 82 82 81 80 78 79 81 82 82 81 81 82
73 73 73 72 71 71 73 73 73 74 74 75 76 75 75 76 75 76 75 77 76 80 77 79 79 80 78 80 79 77 80 81 81 82 81 79 80 81 82 82 81 81 81
71 73 73 73 71 70 72 73 74 74 74 74 75 75 74 73 75 75 75 75 74 74 75 76 78 78 79 80 79 79 82 79 81 81 80 80 80 81 83 82 82 82 82
71 72 72 72 71 70 71 73 73 73 74 75 75 76 75 75 75 75 75 75 75 74 75 74 76 76 77 79 80 79 80 80 82 81 80 81 81 81 82 83 82 82 82
73 73 73 72 71 71 71 72 73 73 74 74 75 76 77 75 75 74 75 76 75 75 75 75 74 75 76 78 79 80 79 80 80 80 80 80 82 81 82 82 82 82 82
74 74 72 72 72 71 71 72 73 74 77 75 75 77 77 76 75 76 75 77 77 77 76 76 76 76 75 77 78 79 78 78 79 79 80 79 80 80 81 81 82 81 82
74 73 73 78 73 72 72 72 74 75 75 75 76 77 78 77 77 76 76 77 78 76 77 76 75 75 74 74 76 75 76 76 77 78 79 80 80 81 79 80 81 81 81
75 74 73 73 72 73 73 73 75 76 74 75 76 77 77 77 78 77 77 75 77 77 78 78 77 76 75 75 76 76 74 73 75 80 78 78 78 77 78 78 79 80 81
75 75 75 73 72 73 73 74 74 75 75 75 75 76 78 78 78 77 77 76 77 77 78 78 77 76 76 76 74 74 75 75 77 76 77 78 75 76 76 75 75 75 79
75 73 73 72 71 73 72 72 72 73 74 75 76 77 78 78 78 76 76 76 76 77 77 77 76 75 75 74 72 74 75 75 76 76 74 73 73 75 74 73 72 71 72
75 74 73 73 71 74 73 73 74 73 74 75 76 77 78 79 78 78 76 76 77 76 76 76 76 74 73 72 71 68 69 72 74 73 72 73 74 73 73 75 73 72 72
75 74 73 74 73 74 73 73 73 73 73 73 74 75 78 79 78 78 77 76 76 75 75 75 75 74 73 72 71 71 67 67 66 71 72 72 71 69 71 72 73 73 72
76 76 75 75 73 74 73 73 73 72 71 72 73 75 77 79 78 78 77 77 76 77 74 74 75 74 73 71 70 70 70 69 65 65 70 69 70 69 68 70 71 71 71
78 77 76 74 73 73 74 74 73 71 72 72 73 74 75 76 78 78 77 77 76 77 76 75 75 73 74 72 71 69 69 67 67 65 64 68 68 69 68 66 67 67 69
79 78 77 73 73 73 74 73 73 72 71 71 71 72 73 75 76 77 78 77 77 77 76 75 74 73 74 74 72 70 70 69 68 67 64 65 65 67 68 67 63 64 66
MSLP
1014.38 1014.28 1014.18 1014.47 1014.58 1014.81 1014.85 1015.05 1015.14 1015.32 1015.28 1015.46 1015.51 1015.61 1015.73 1015.91 1016.00 1015.98 1015.92 1015.83 1015.94 1015.92 1015.90 1015.88 1015.81 1015.80 1015.82 1015.81 1015.77 1015.79 1015.85 1015.96 1016.12 1016.27 1016.42 1016.49 1016.56 1016.54 1016.47 1016.48 1016.60 1016.64 1016.71
1014.01 1014.28 1014.33 1014.62 1014.80 1015.08 1015.26 1015.36 1015.45 1015.58 1015.61 1015.70 1015.68 1015.77 1015.98 1016.02 1016.07 1016.08 1016.11 1016.14 1016.12 1016.15 1016.14 1015.95 1015.98 1016.06 1016.09 1016.12 1016.13 1016.16 1016.24 1016.36 1016.31 1016.32 1016.47 1016.60 1016.67 1016.72 1016.70 1016.65 1016.80 1016.84 1016.86
1014.18 1014.29 1014.58 1014.81 1015.00 1015.30 1015.48 1015.56 1015.67 1015.76 1015.83 1015.94 1015.94 1016.10 1016.18 1016.16 1016.28 1016.34 1016.31 1016.33 1016.38 1016.42 1016.38 1016.36 1016.30 1016.36 1016.39 1016.43 1016.48 1016.53 1016.60 1016.76 1016.72 1016.56 1016.66 1016.88 1016.94 1016.82 1016.83 1016.77 1016.92 1016.98 1017.04
1014.10 1014.44 1014.78 1015.03 1015.24 1015.40 1015.57 1015.77 1015.84 1015.95 1016.14 1016.28 1016.41 1016.54 1016.44 1016.48 1016.55 1016.64 1016.65 1016.68 1016.62 1016.60 1016.62 1016.62 1016.65 1016.66 1016.64 1016.64 1016.58 1016.58 1016.54 1016.71 1016.70 1016.60 1017.00 1017.07 1016.97 1016.83 1016.78 1016.83 1017.02 1017.15 1017.16
1014.36 1014.62 1014.94 1015.21 1015.34 1015.51 1015.78 1015.89 1016.05 1016.20 1016.36 1016.48 1016.63 1016.70 1016.67 1016.69 1016.81 1016.86 1016.96 1017.04 1016.99 1016.96 1016.94 1016.88 1016.89 1016.88 1016.78 1016.69 1016.64 1016.56 1016.52 1016.63 1016.78 1016.74 1017.10 1017.14 1017.11 1016.92 1016.72 1016.81 1016.94 1017.03 1017.13
1014.64 1014.79 1015.08 1015.32 1015.48 1015.73 1015.92 1016.11 1016.35 1016.45 1016.52 1016.64 1016.80 1016.94 1016.95 1016.94 1016.99 1017.02 1017.07 1017.09 1017.11 1017.14 1017.14 1017.04 1017.06 1017.00 1016.88 1016.78 1016.67 1016.59 1016.52 1016.54 1016.64 1016.90 1016.98 1017.00 1016.88 1016.82 1016.78 1016.68 1016.86 1016.99 1017.09
1014.89 1015.05 1015.20 1015.38 1015.62 1015.86 1016.06 1016.34 1016.51 1016.63 1016.73 1016.90 1017.00 1017.07 1017.20 1017.21 1017.28 1017.35 1017.32 1017.29 1017.29 1017.33 1017.42 1017.30 1017.17 1017.08 1016.88 1016.70 1016.59 1016.56 1016.48 1016.33 1016.36 1016.48 1016.72 1016.69 1016.62 1016.64 1016.71 1016.62 1016.74 1016.87 1017.02
1015.08 1015.23 1015.32 1015.52 1015.76 1016.02 1016.23 1016.48 1016.67 1016.79 1016.86 1017.05 1017.23 1017.36 1017.42 1017.48 1017.60 1017.62 1017.53 1017.50 1017.48 1017.49 1017.49 1017.40 1017.16 1016.91 1016.76 1016.60 1016.43 1016.30 1016.15 1016.12 1015.88 1016.05 1016.38 1016.62 1016.72 1016.65 1016.65 1016.64 1016.72 1016.89 1017.08
1015.21 1015.39 1015.52 1015.76 1015.98 1016.18 1016.48 1016.64 1016.85 1016.95 1017.08 1017.25 1017.42 1017.49 1017.59 1017.70 1017.74 1017.73 1017.71 1017.67 1017.59 1017.46 1017.37 1017.28 1017.17 1016.91 1016.72 1016.48 1016.18 1016.07 1015.82 1015.77 1015.73 1016.04 1016.32 1016.50 1016.58 1016.58 1016.54 1016.54 1016.56 1016.60 1016.78
1015.51 1015.66 1015.92 1016.03 1016.19 1016.45 1016.71 1016.79 1017.04 1017.26 1017.33 1017.43 1017.52 1017.61 1017.68 1017.77 1017.79 1017.78 1017.71 1017.63 1017.45 1017.38 1017.34 1017.27 1017.17 1016.95 1016.61 1016.29 1016.00 1015.69 1015.55 1015.36 1015.39 1015.80 1016.04 1016.14 1016.26 1016.37 1016.31 1016.30 1016.45 1016.63 1016.80
1015.82 1016.01 1016.22 1016.29 1016.46 1016.74 1016.97 1016.99 1017.15 1017.32 1017.48 1017.54 1017.66 1017.67 1017.88 1018.05 1018.01 1017.89 1017.65 1017.46 1017.34 1017.33 1017.24 1017.11 1017.02 1016.87 1016.54 1016.24 1015.96 1015.70 1015.43 1015.34 1015.30 1015.54 1015.77 1015.96 1016.02 1015.94 1015.93 1016.04 1016.26 1016.44 1016.64
1015.96 1016.24 1016.48 1016.47 1016.68 1016.96 1016.96 1017.21 1017.40 1017.56 1017.70 1017.90 1017.92 1017.98 1018.09 1018.13 1018.05 1017.75 1017.54 1017.40 1017.39 1017.31 1017.20 1017.15 1017.15 1017.04 1016.74 1016.48 1016.18 1015.94 1015.58 1015.35 1015.30 1015.43 1015.64 1015.86 1015.92 1015.93 1016.00 1016.14 1016.21 1016.29 1016.55
1015.74 1016.20 1016.48 1016.50 1016.82 1017.04 1017.02 1017.40 1017.60 1017.76 1017.89 1018.06 1018.06 1018.14 1018.18 1018.16 1018.01 1017.84 1017.73 1017.60 1017.46 1017.16 1017.18 1017.02 1016.98 1016.92 1016.91 1016.65 1016.34 1016.14 1015.94 1015.80 1015.68 1015.57 1015.53 1015.55 1015.65 1015.72 1015.78 1015.90 1015.96 1016.14 1016.42
1015.70 1016.06 1016.32 1016.44 1016.82 1017.10 1017.15 1017.36 1017.61 1017.74 1017.90 1018.07 1018.10 1018.10 1018.23 1018.23 1018.00 1017.94 1017.90 1017.75 1017.48 1017.34 1017.13 1017.14 1017.08 1017.05 1017.04 1016.80 1016.74 1016.49 1015.84 1015.82 1015.78 1015.63 1015.58 1015.58 1015.65 1015.65 1015.76 1015.76 1015.79 1015.88 1015.99
1015.54 1015.94 1016.17 1016.40 1016.82 1017.02 1017.24 1017.39 1017.56 1017.68 1017.80 1017.94 1017.96 1018.00 1018.12 1018.13 1017.96 1018.00 1017.87 1017.79 1017.66 1017.60 1017.53 1017.62 1017.50 1017.32 1017.07 1016.76 1016.54 1016.26 1016.04 1015.79 1015.64 1015.51 1015.56 1015.42 1015.38 1015.49 1015.70 1015.68 1015.64 1015.67 1015.72
1015.25 1015.65 1016.03 1016.37 1016.58 1016.93 1017.16 1017.33 1017.50 1017.62 1017.68 1017.85 1017.86 1017.92 1018.02 1018.11 1018.04 1017.98 1017.77 1017.79 1017.75 1017.61 1017.88 1017.74 1017.61 1017.43 1017.01 1016.72 1016.57 1016.42 1016.29 1015.94 1015.72 1015.65 1015.51 1015.41 1015.39 1015.55 1015.63 1015.67 1015.60 1015.56 1015.67
1014.80 1015.30 1015.84 1016.18 1016.43 1016.88 1017.05 1017.22 1017.33 1017.52 1017.56 1017.75 1017.80 1017.84 1017.97 1018.07 1017.97 1017.94 1017.88 1017.83 1017.53 1017.55 1017.59 1017.51 1017.58 1017.26 1017.36 1016.92 1016.75 1016.25 1015.99 1015.83 1015.60 1015.36 1015.29 1015.28 1015.36 1015.49 1015.40 1015.32 1015.30 1015.32 1015.50
1014.67 1015.10 1015.55 1015.97 1016.39 1016.74 1016.99 1017.16 1017.23 1017.28 1017.42 1017.56 1017.67 1017.69 1017.74 1017.87 1017.75 1017.82 1017.88 1017.83 1017.66 1017.80 1017.58 1017.53 1017.38 1017.49 1017.36 1017.09 1017.02 1016.51 1016.31 1015.87 1015.58 1015.40 1015.29 1015.29 1015.29 1015.24 1015.23 1015.12 1015.13 1015.16 1015.48
1014.18 1014.74 1015.30 1015.71 1016.18 1016.49 1016.68 1017.03 1017.13 1017.14 1017.32 1017.36 1017.46 1017.48 1017.58 1017.72 1017.70 1017.86 1017.88 1017.91 1017.80 1017.55 1017.42 1017.50 1017.46 1017.47 1017.64 1017.28 1017.11 1016.58 1016.30 1015.91 1015.75 1015.42 1015.36 1015.28 1015.13 1015.07 1015.14 1015.20 1015.22 1015.24 1015.31
1013.94 1014.42 1014.97 1015.46 1015.96 1016.34 1016.65 1016.91 1017.10 1017.26 1017.22 1017.26 1017.22 1017.14 1017.26 1017.54 1017.60 1017.74 1017.70 1017.74 1017.81 1017.74 1017.54 1017.48 1017.47 1017.44 1017.42 1017.48 1017.32 1016.83 1016.36 1016.16 1015.98 1015.93 1015.78 1015.38 1015.23 1015.22 1015.34 1015.55 1015.46 1015.36 1015.42
1013.83 1014.39 1014.84 1015.47 1015.88 1016.31 1016.82 1017.16 1017.34 1017.34 1017.24 1017.11 1017.00 1017.00 1017.05 1017.22 1017.34 1017.59 1017.58 1017.69 1017.60 1017.63 1017.57 1017.45 1017.48 1017.62 1017.51 1017.47 1017.36 1016.95 1016.29 1016.09 1016.01 1016.09 1016.10 1015.70 1015.51 1015.64 1015.64 1015.64 1015.70 1015.72 1015.53
1013.26 1013.91 1014.56 1014.97 1015.64 1015.99 1016.32 1016.64 1016.82 1017.05 1017.11 1017.03 1016.98 1016.92 1016.76 1016.66 1016.89 1017.08 1017.28 1017.32 1017.30 1017.47 1017.53 1017.29 1017.23 1017.28 1017.25 1017.10 1017.37 1017.58 1017.15 1016.62 1016.17 1016.13 1016.04 1015.90 1015.82 1015.78 1015.43 1015.34 1015.28 1015.38 1015.55
1012.79 1013.34 1013.89 1014.39 1015.02 1015.59 1016.00 1016.48 1016.83 1017.03 1017.18 1017.22 1017.13 1016.97 1016.67 1016.62 1016.74 1016.84 1016.89 1016.86 1017.00 1017.17 1017.30 1017.12 1017.17 1016.82 1016.48 1016.38 1016.68 1017.08 1017.43 1017.37 1017.13 1016.15 1015.96 1016.24 1016.35 1015.98 1015.56 1015.29 1015.17 1015.30 1015.49
1011.94 1012.47 1013.09 1013.84 1014.52 1015.11 1015.64 1016.14 1016.37 1016.60 1017.03 1017.01 1016.95 1016.90 1016.72 1016.63 1016.71 1016.70 1016.56 1016.55 1016.70 1016.76 1016.98 1016.90 1016.82 1017.12 1017.06 1017.04 1017.56 1017.42 1017.10 1017.09 1017.28 1016.95 1016.22 1016.34 1016.49 1016.35 1016.09 1015.64 1015.33 1015.50 1015.60
1011.37 1012.00 1012.50 1013.32 1014.02 1014.63 1015.22 1015.55 1015.96 1016.28 1016.54 1016.71 1016.75 1016.86 1016.74 1016.69 1016.60 1016.42 1016.28 1016.24 1016.45 1016.41 1016.61 1016.45 1016.50 1016.74 1016.83 1016.78 1017.16 1017.23 1017.19 1017.18 1017.28 1017.32 1016.84 1016.59 1016.70 1016.80 1016.78 1016.41 1016.24 1016.15 1016.04
1010.55 1011.44 1012.16 1012.79 1013.35 1014.10 1014.66 1015.09 1015.45 1015.75 1016.18 1016.63 1016.64 1016.75 1016.70 1016.69 1016.48 1016.07 1015.92 1015.99 1015.97 1016.06 1016.00 1016.15 1016.30 1016.29 1016.15 1016.54 1016.89 1016.85 1016.68 1016.86 1016.99 1017.04 1017.03 1016.86 1016.80 1016.99 1017.19 1017.14 1016.98 1016.90 1016.74
Wind_Speed
3 4 11 12 14 13 14 14 15 15 15 15 15 15 14 13 12 12 11 11 11 12 13 11 11 10 10 9 8 6 5 5 6 6 5 6 5 7 8 9 7 7 8
7 4 12 11 14 14 13 14 14 14 15 14 15 14 13 13 12 13 11 10 12 13 11 11 11 9 9 8 7 4 3 4 3 3 2 2 4 4 3 7 8 5 7
7 5 8 10 13 14 13 13 13 13 14 13 13 13 12 12 12 11 11 11 11 11 10 10 10 9 7 6 5 3 2 2 1 1 5 3 4 4 4 5 6 6 6
8 5 6 9 11 12 12 12 12 12 12 12 12 11 10 11 11 9 10 10 10 10 9 8 7 7 5 3 2 2 1 3 4 5 3 4 3 6 2 4 4 3 4
6 6 8 11 11 11 11 11 11 11 11 11 10 10 10 10 9 9 9 9 9 8 7 6 6 5 4 5 5 5 6 5 4 4 2 2 2 4 3 2 3 4 4
7 7 11 12 12 11 11 10 10 9 10 10 9 8 8 9 8 9 8 8 7 6 5 4 5 4 4 5 7 8 9 9 7 2 2 4 3 4 6 5 4 4 4
7 6 8 12 12 11 10 10 9 8 8 8 7 8 8 7 7 7 6 5 5 5 5 6 7 7 7 7 9 9 9 10 5 4 3 3 4 6 6 6 6 6 7
8 6 7 12 12 11 10 10 8 8 9 7 7 7 6 5 5 5 4 4 4 4 5 6 7 8 9 10 10 11 10 11 8 4 3 1 3 3 5 6 7 7 7
6 5 5 6 8 11 9 9 8 8 7 8 7 6 4 4 3 3 4 5 5 4 5 6 8 10 11 11 12 12 13 12 7 2 4 3 7 8 9 9 8 7 8
5 4 5 5 5 5 4 9 9 7 6 6 6 4 3 3 3 5 4 4 5 5 6 6 9 11 11 11 12 13 11 13 9 4 4 4 6 6 6 7 8 7 7
5 5 4 4 5 5 3 5 7 8 6 6 5 3 3 2 3 4 5 6 7 7 7 8 7 9 9 8 10 10 9 2 4 3 4 7 8 8 6 7 9 7 9
9 5 4 5 5 5 3 3 3 2 2 2 2 2 2 1 2 4 6 9 9 9 9 9 7 6 5 3 4 7 4 5 2 2 3 7 9 7 6 7 8 8 10
9 6 5 5 5 5 4 3 2 1 1 1 1 1 1 2 2 2 3 3 3 6 3 5 5 3 4 2 3 4 4 4 2 1 3 6 7 8 8 7 8 8 11
9 8 6 6 5 5 3 2 3 2 1 1 2 1 0 1 2 3 2 3 3 3 4 4 3 5 5 5 5 5 4 3 2 2 2 5 8 9 8 9 9 9 10
10 8 8 6 6 5 4 3 2 2 2 2 2 2 1 2 2 3 2 1 3 3 3 4 5 5 5 5 4 3 5 4 3 2 2 7 9 9 7 10 9 9 10
9 9 8 7 6 6 4 4 3 3 3 3 3 2 3 2 3 3 2 2 3 3 2 3 4 4 5 4 6 5 5 4 4 3 2 4 8 7 9 10 9 9 10
9 8 9 8 6 6 6 4 3 3 3 3 3 3 2 3 4 4 3 2 3 2 3 3 3 3 4 6 5 6 5 6 4 3 3 3 3 6 8 8 9 8 8
7 9 8 7 7 6 6 4 3 3 3 3 3 3 3 4 5 3 3 3 3 1 1 2 2 1 3 3 4 5 4 4 5 4 4 2 2 3 4 6 7 6 5
11 8 8 7 8 8 6 4 4 4 3 3 3 4 5 5 5 3 3 3 4 1 2 1 1 1 2 3 4 5 4 4 3 5 5 5 5 4 3 5 6 6 5
9 8 8 7 7 7 3 3 2 1 1 2 3 4 4 4 6 4 3 4 3 2 1 1 1 1 2 2 3 6 4 3 1 2 4 4 4 5 4 4 3 2 5
9 7 8 8 7 6 3 3 2 2 2 2 2 5 4 4 5 5 4 3 3 2 1 2 1 1 2 1 2 4 2 2 2 2 3 2 3 4 5 3 3 2 4
14 12 9 10 7 7 5 3 3 3 2 1 1 4 4 5 2 4 4 4 2 2 3 3 2 1 2 1 1 1 3 4 3 2 2 3 5 5 6 6 4 6 3
13 13 13 13 11 9 6 3 2 3 2 1 2 2 3 3 4 5 6 4 4 2 3 4 2 5 4 4 5 3 2 2 3 2 2 2 5 5 6 5 3 3 3
15 14 13 12 11 9 10 6 6 4 4 3 3 2 3 3 4 5 6 5 5 3 4 5 4 3 2 3 1 1 1 3 3 3 2 2 3 7 8 6 6 6 6
13 13 13 12 10 9 11 10 8 5 4 3 2 3 3 3 3 5 6 5 5 4 4 7 4 4 1 2 1 2 1 2 2 3 4 3 1 5 6 6 6 6 8
14 13 12 13 12 11 11 10 11 10 7 4 4 4 3 2 3 5 5 4 5 5 6 4 5 3 4 2 1 2 2 2 2 3 4 2 1 2 5 7 7 6 7
Wind_Direction
197 154 128 126 117 110 107 105 101 98 98 106 106 107 110 114 116 114 115 111 100 98 95 91 91 93 95 94 85 89 93 102 108 110 124 136 145 150 147 135 126 131 130
121 142 131 136 117 112 110 107 103 107 108 109 109 112 124 123 124 122 115 105 101 104 103 99 98 92 84 75 74 65 63 57 55 58 48 130 159 170 183 151 144 141 135
126 142 132 130 116 113 114 114 117 120 119 120 116 122 124 123 124 116 116 116 107 106 95 90 90 86 79 72 67 54 72 51 9 285 356 7 334 248 244 195 143 144 146
132 127 124 128 118 119 127 121 120 117 116 115 112 114 111 123 105 110 108 106 105 103 91 85 82 81 71 62 48 12 349 214 257 285 22 10 324 300 304 154 144 147 152
115 121 141 137 132 133 125 131 118 122 119 119 112 117 116 112 109 108 98 92 87 83 76 64 52 43 23 358 339 322 301 292 278 321 64 323 325 318 283 206 178 173 192
123 124 139 146 144 138 133 118 122 114 123 117 110 119 104 107 112 101 100 94 83 71 61 37 24 5 340 317 296 293 307 311 302 188 261 257 275 265 300 217 202 210 201
122 128 142 152 150 138 135 129 132 136 129 116 121 115 106 108 103 88 82 79 70 45 16 351 343 333 316 305 298 292 285 287 280 289 278 282 259 245 264 238 222 210 207
127 129 152 153 144 139 140 135 139 144 128 127 125 111 105 101 85 72 58 37 25 9 346 331 313 303 296 293 288 288 279 276 273 228 254 256 247 272 278 275 241 237 232
114 130 132 126 143 147 150 151 147 133 123 134 118 108 105 83 53 34 15 354 349 339 321 310 312 309 305 299 294 290 284 273 269 239 242 234 252 273 268 260 261 247 236
113 124 124 133 129 133 163 147 150 146 143 129 117 122 110 64 10 347 1 326 305 311 319 318 323 329 319 308 300 301 293 274 253 213 227 238 254 269 273 256 264 251 245
133 135 138 146 134 139 152 160 151 162 160 147 130 147 64 30 356 339 313 310 314 321 331 327 336 334 335 324 311 310 328 300 243 226 230 229 232 245 251 225 248 239 243
168 172 162 158 155 153 166 133 140 167 111 101 108 68 53 353 302 310 319 322 341 349 345 333 326 332 5 328 324 333 350 342 307 246 245 227 228 239 250 237 243 243 254
169 176 174 166 169 167 163 147 152 139 121 106 194 110 326 313 310 311 315 334 340 354 343 328 340 329 3 332 337 341 12 349 328 305 293 246 237 240 248 255 269 255 257
171 180 173 174 169 182 154 153 162 160 160 180 219 240 232 318 306 308 308 335 339 337 330 353 335 333 358 346 355 325 2 358 315 311 269 234 230 234 238 245 260 253 247
174 177 181 170 173 174 160 167 176 200 196 226 237 250 257 318 312 320 266 277 330 323 355 346 333 337 332 349 326 335 321 323 314 275 287 262 220 230 228 251 256 240 242
173 181 168 177 175 166 172 183 193 206 228 238 257 257 272 269 298 299 302 351 317 306 333 305 322 324 314 327 328 339 342 332 314 299 254 267 260 233 244 254 256 247 252
184 170 173 172 169 176 186 190 199 207 228 251 266 273 261 257 289 287 303 292 309 331 321 312 334 303 342 327 331 326 336 337 332 322 286 242 255 285 266 267 265 269 273
163 177 164 173 170 180 188 180 199 221 231 228 237 250 250 243 264 286 304 305 339 14 344 333 301 329 275 296 325 317 318 316 312 319 334 296 272 272 281 281 272 271 266
181 170 166 168 173 184 198 174 200 230 227 237 233 226 221 224 241 239 261 289 306 310 46 94 43 224 299 312 329 311 303 304 337 348 342 329 302 289 282 294 290 255 262
178 179 170 172 175 179 161 142 136 171 243 207 222 233 219 214 229 226 253 274 273 294 323 227 233 235 265 318 315 304 292 311 341 2 1 321 289 279 283 296 292 317 296
168 166 177 164 183 160 141 150 134 203 248 295 254 256 241 227 221 209 236 251 244 263 295 287 6 304 299 38 345 313 308 329 344 318 348 333 314 309 295 270 263 269 265
176 183 180 189 169 183 171 168 157 164 194 195 278 275 267 289 248 227 241 246 256 295 279 259 206 230 249 211 188 194 349 332 346 358 339 331 338 324 307 300 240 226 246
181 183 188 190 181 185 170 130 95 83 51 92 274 291 286 291 263 243 252 258 257 218 251 266 255 208 219 206 176 155 173 245 324 311 331 350 345 343 332 322 289 253 279
196 189 190 186 184 181 167 175 174 173 176 205 195 209 273 290 291 264 261 248 255 243 239 248 262 314 313 301 5 270 291 151 202 310 322 359 15 0 3 10 28 23 1
189 188 186 181 184 176 186 191 190 193 180 187 192 212 252 299 288 275 262 247 252 244 229 259 235 248 234 254 242 174 195 175 222 227 285 329 27 28 22 22 30 28 21
187 187 184 178 191 178 184 189 193 201 190 194 217 221 242 254 275 283 285 262 257 265 262 244 256 240 243 210 173 232 191 196 192 213 252 290 227 78 39 35 31 24 19